Weather History for Easton, MD

Change the Weather History Date:

Tuesday, January 29, 2013

  Actual Average Record
Temperature  
Mean Temperature 54 °F -  
Max Temperature 68 °F 46 °F 71 °F (1975)
Min Temperature 40 °F 26 °F 1 °F (1961)
Degree Days  
Heating Degree Days 11    
Growing Degree Days 4 (Base 50)    
Moisture  
Dew Point 46 °F    
Average Humidity 90    
Maximum Humidity 100    
Minimum Humidity 59    
Precipitation  
Precipitation 0.00 in - - ()
Sea Level Pressure  
Sea Level Pressure 30.11 in    
Wind  
Wind Speed 5 mph (SSW)    
Max Wind Speed 12 mph    
Max Gust Speed -    
Visibility 9 miles    
Events      
Averages and records for this station are not official NWS values.
T = Trace of Precipitation, MM = Missing Value Source: NWS Daily Summary

Daily Weather History Graph

Daily Weather History Graph

Search for Another Location

Airport:

Trip Planner

Search our weather history database for the weather conditions in past years. The results will help you decide how hot, cold, wet, or windy it might be!

Date:

Astronomy

Jan. 29, 2013 Rise Set
Actual Time 7:12 AM EST 5:22 PM EST
Civil Twilight 6:44 AM EST 5:50 PM EST
Nautical Twilight 6:12 AM EST 6:22 PM EST
Astronomical Twilight 5:41 AM EST 6:54 PM EST
Moon 8:14 PM EST (1/29) 8:10 AM EST (1/29)
Length of Visible Light 11h 06m
Length of Day
10h 10m
Waning Gibbous, 94% of the Moon is Illuminated
Jan 29
Waning Gibbous
Feb 3
Last Quarter
Feb 10
New
Feb 17
First Quarter
Feb 25
Full

Hourly Weather History & Observations

Time (EST) Temp. Windchill Dew Point Humidity Pressure Visibility Wind Dir Wind Speed Gust Speed Precip Events Conditions
12:19 AM 42.4 °F 38.8 °F 42.4 °F 100% 30.10 in 10.0 mi SW 5.8 mph - N/A   Clear
12:41 AM 43.5 °F 40.9 °F 42.6 °F 97% 30.09 in 10.0 mi WSW 4.6 mph - N/A   Clear
1:02 AM 42.8 °F 41.1 °F 42.1 °F 97% 30.09 in 10.0 mi WSW 3.5 mph - N/A   Clear
1:23 AM 41.2 °F 37.3 °F 41.2 °F 100% 30.09 in 10.0 mi SW 5.8 mph - N/A   Clear
1:45 AM 41.7 °F 38.0 °F 41.7 °F 100% 30.09 in 10.0 mi SW 5.8 mph - N/A   Clear
2:06 AM 41.9 °F 39.0 °F 41.9 °F 100% 30.09 in 10.0 mi SW 4.6 mph - N/A   Clear
2:27 AM 41.9 °F 40.0 °F 41.9 °F 100% 30.09 in 10.0 mi SW 3.5 mph - N/A   Clear
2:48 AM 41.0 °F 38.0 °F 41.0 °F 100% 30.10 in 10.0 mi SW 4.6 mph - N/A   Clear
3:10 AM 41.5 °F 38.6 °F 41.5 °F 100% 30.10 in 10.0 mi SW 4.6 mph - N/A   Clear
3:31 AM 40.3 °F 36.3 °F 40.3 °F 100% 30.10 in 10.0 mi SW 5.8 mph - N/A   Clear
3:52 AM 40.6 °F 37.5 °F 40.6 °F 100% 30.10 in 7.0 mi SW 4.6 mph - N/A   Clear
4:14 AM 40.8 °F 37.8 °F 40.8 °F 100% 30.10 in 7.0 mi SW 4.6 mph - N/A   Clear
4:35 AM 41.2 °F 38.2 °F 41.2 °F 100% 30.11 in 10.0 mi SW 4.6 mph - N/A   Clear
4:56 AM 41.5 °F 39.6 °F 41.5 °F 100% 30.11 in 7.0 mi WSW 3.5 mph - N/A   Clear
5:18 AM 41.4 °F 38.4 °F 41.4 °F 100% 30.11 in 7.0 mi SW 4.6 mph - N/A   Clear
5:39 AM 40.8 °F 38.8 °F 40.8 °F 100% 30.12 in 7.0 mi SW 3.5 mph - N/A   Clear
5:50 AM 41.0 °F 39.0 °F 41.0 °F 100% 30.12 in 7.0 mi SSW 3.5 mph - N/A   Mostly Cloudy
6:00 AM 41.9 °F 38.2 °F 41.9 °F 100% 30.13 in 7.0 mi SW 5.8 mph - N/A   Clear
6:21 AM 41.9 °F 40.0 °F 41.9 °F 100% 30.13 in 7.0 mi SSW 3.5 mph - N/A   Clear
6:41 AM 42.3 °F 40.5 °F 42.3 °F 100% 30.13 in 7.0 mi SSW 3.5 mph - N/A   Clear
6:52 AM 41.0 °F 38.0 °F 41.0 °F 100% 30.14 in 7.0 mi SW 4.6 mph - N/A   Scattered Clouds
7:51 AM 42.8 °F 39.3 °F 42.8 °F 100% 30.16 in 7.0 mi SSW 5.8 mph - N/A   Mostly Cloudy
8:55 AM 48.2 °F - 46.4 °F 93% 30.16 in 7.0 mi SSW 3.5 mph - N/A   Scattered Clouds
9:50 AM 53.6 °F - 46.4 °F 77% 30.17 in 10.0 mi SSW 4.6 mph - N/A   Scattered Clouds
10:50 AM 57.2 °F - 48.2 °F 72% 30.18 in 10.0 mi SSW 4.6 mph - N/A   Scattered Clouds
11:50 AM 64.4 °F - 50.0 °F 59% 30.15 in 10.0 mi Calm Calm - N/A   Scattered Clouds
12:53 PM 66.2 °F - 51.8 °F 60% 30.12 in 10.0 mi Calm Calm - N/A   Scattered Clouds
1:53 PM 68.0 °F - 53.6 °F 60% 30.10 in 10.0 mi South 6.9 mph - N/A   Scattered Clouds
2:50 PM 68.0 °F - 53.6 °F 60% 30.09 in 10.0 mi South 11.5 mph - N/A   Scattered Clouds
3:50 PM 66.2 °F - 53.6 °F 64% 30.09 in 10.0 mi South 9.2 mph - N/A   Scattered Clouds
4:50 PM 62.6 °F - 53.6 °F 72% 30.10 in 10.0 mi SSW 9.2 mph - N/A   Mostly Cloudy
5:53 PM 57.2 °F - 50.0 °F 77% 30.10 in 10.0 mi South 9.2 mph - N/A   Mostly Cloudy
6:54 PM 55.4 °F - 50.0 °F 82% 30.10 in 10.0 mi South 6.9 mph - N/A   Mostly Cloudy
7:50 PM 53.6 °F - 50.0 °F 88% 30.09 in 10.0 mi SSE 6.9 mph - N/A   Mostly Cloudy
8:53 PM 53.6 °F - 50.0 °F 88% 30.09 in 10.0 mi South 9.2 mph - N/A   Mostly Cloudy
9:56 PM 52.2 °F - 49.5 °F 91% 30.08 in 10.0 mi South 10.4 mph - N/A   Clear
10:17 PM 52.2 °F - 49.8 °F 92% 30.08 in 10.0 mi South 8.1 mph - N/A   Clear
10:38 PM 52.0 °F - 50.0 °F 93% 30.08 in 10.0 mi South 9.2 mph - N/A   Clear
10:59 PM 52.3 °F - 50.0 °F 92% 30.07 in 10.0 mi SSW 10.4 mph - N/A   Clear
11:21 PM 52.5 °F - 50.2 °F 92% 30.08 in 10.0 mi SSW 10.4 mph - N/A   Clear
11:42 PM 52.0 °F - 50.0 °F 93% 30.06 in 10.0 mi South 10.4 mph - N/A   Clear